Temp
16 16 16 17 17 17 19 18 18 17 18 18 18 18 17 17 17 18 19 18 17 17 17 18 19 18 18 18 17 17 17 17 16 18 19 18 16 16 16 16 16 16 16
16 16 16 16 16 18 17 18 19 18 18 18 19 18 18 18 17 17 17 18 18 17 17 17 17 17 17 18 17 17 17 16 17 17 17 17 16 16 16 16 16 16 17
15 15 15 15 15 15 16 16 17 17 17 17 18 18 18 18 18 17 17 18 18 18 17 17 17 17 17 17 17 17 17 16 16 16 17 18 17 17 16 16 17 17 17
15 15 15 15 16 15 15 15 15 16 17 17 17 17 17 17 18 17 17 17 18 17 17 17 17 17 17 17 16 17 17 16 16 16 17 17 16 16 16 17 16 17 16
15 15 15 15 15 15 15 14 14 14 15 16 15 16 16 16 16 17 17 17 17 17 17 17 17 17 18 17 17 17 17 16 16 16 16 16 16 15 15 17 16 16 15
14 15 15 14 15 15 14 14 14 15 16 14 15 14 15 15 16 17 17 17 17 18 18 17 17 18 17 17 17 17 16 17 16 15 16 16 15 15 16 16 16 16 15
14 15 15 14 15 15 14 14 14 14 16 15 14 15 15 15 16 16 17 17 17 17 17 17 17 17 17 17 17 17 16 16 16 16 16 17 16 16 16 16 16 16 16
13 14 14 15 15 15 15 14 14 14 14 15 15 15 15 15 16 16 16 16 17 17 16 16 17 17 17 16 17 17 16 16 17 16 15 16 16 16 16 16 16 15 15
13 13 13 14 16 17 15 14 15 14 15 15 14 14 14 15 16 16 15 15 15 15 16 16 16 17 16 15 16 16 16 16 16 16 16 16 16 16 16 16 16 16 16
12 13 14 15 16 16 15 14 14 15 15 14 14 15 14 14 15 14 14 14 14 15 15 15 15 15 16 15 15 15 15 16 16 16 16 17 17 17 17 16 16 15 16
12 13 13 14 14 15 15 15 15 15 15 15 15 15 15 15 14 14 14 14 14 14 14 15 16 16 14 14 14 14 14 14 16 16 16 16 16 16 16 16 17 16 16
12 13 14 13 13 14 15 15 15 15 15 15 15 15 15 15 15 15 15 14 15 15 15 15 14 14 14 14 14 14 15 15 16 15 16 16 16 16 16 15 16 15 16
12 13 14 14 14 14 14 14 15 15 15 14 14 13 14 14 14 14 14 14 14 14 14 14 13 14 14 14 14 14 14 15 15 15 16 18 15 15 15 15 16 16 15
12 13 13 14 14 14 14 15 15 15 15 15 15 15 14 13 13 13 14 14 14 14 14 14 14 13 13 14 14 15 14 14 14 14 15 15 15 15 15 15 15 15 15
12 12 13 14 13 14 14 14 14 14 14 15 15 15 15 14 13 13 13 13 13 14 14 14 13 13 12 12 12 12 13 12 13 13 14 15 15 14 13 13 14 15 15
13 13 13 14 14 14 14 14 14 14 14 14 14 14 14 14 14 14 14 14 14 14 13 13 13 12 12 12 13 13 11 12 12 13 13 14 13 12 13 14 14 13 14
11 12 14 14 14 14 14 15 15 14 14 14 14 14 14 14 13 13 13 13 13 13 13 13 13 13 13 12 12 11 10 10 10 10 11 10 10 11 11 11 13 13 13
12 12 13 13 13 14 14 14 15 15 15 15 13 14 14 13 13 13 13 13 13 13 13 12 13 12 11 11 11 10 10 10 10 10 10 10 10 10 11 11 11 12 12
12 12 12 13 13 13 14 14 14 14 14 14 14 14 13 13 13 13 12 12 12 13 13 13 11 10 12 12 11 10 10 9 9 10 10 10 10 11 10 10 11 11 11
12 12 12 13 13 13 14 14 14 14 14 14 14 14 13 13 13 13 12 12 11 11 12 11 11 10 11 10 9 9 10 9 9 9 9 9 9 9 10 10 10 11 11
13 12 12 13 14 13 13 13 13 14 14 14 14 14 13 13 13 14 13 13 12 12 12 12 11 11 11 12 9 10 10 9 10 10 10 9 10 9 9 10 9 10 10
13 13 13 13 13 13 13 13 13 14 14 14 14 14 14 13 13 14 13 13 13 12 12 11 11 11 9 11 9 10 10 10 10 9 9 9 9 9 9 10 9 9 9
13 13 14 14 13 13 13 13 13 13 13 13 14 14 14 14 14 14 14 14 13 13 12 11 10 10 9 10 9 9 9 9 9 9 8 8 9 10 10 9 9 8 8
12 13 13 13 13 12 13 12 12 12 12 12 13 13 13 14 14 14 14 14 14 13 12 12 11 11 9 9 9 9 9 9 8 9 8 8 8 9 9 9 9 8 7
12 12 12 12 12 12 12 12 12 12 12 12 12 12 12 12 12 12 13 12 13 13 12 12 12 12 11 10 11 10 9 9 9 9 9 8 8 8 8 8 8 8 7
11 11 11 11 11 11 11 11 11 11 11 10 10 10 10 10 10 10 10 9 10 10 10 11 11 11 11 11 10 10 10 10 9 9 9 8 8 8 9 8 8 9 8
Height
1466 1465 1465 1464 1466 1471 1472 1476 1470 1473 1479 1484 1493 1496 1497 1495 1498 1501 1505 1511 1514 1517 1517 1516 1517 1520 1524 1527 1529 1530 1532 1533 1534 1535 1536 1536 1532 1530 1531 1530 1529 1528 1527
1462 1461 1459 1460 1462 1457 1465 1464 1468 1472 1477 1479 1477 1489 1493 1491 1491 1495 1499 1501 1507 1510 1512 1513 1513 1514 1513 1518 1521 1523 1525 1527 1529 1529 1531 1531 1529 1528 1526 1525 1524 1524 1523
1454 1454 1455 1453 1455 1457 1458 1460 1463 1468 1472 1471 1475 1479 1485 1484 1486 1488 1493 1499 1501 1504 1507 1508 1509 1508 1508 1511 1513 1517 1519 1521 1523 1524 1526 1527 1526 1526 1524 1521 1520 1520 1520
1448 1447 1447 1447 1449 1451 1453 1456 1458 1461 1464 1465 1468 1472 1475 1476 1478 1481 1487 1491 1494 1496 1501 1503 1504 1504 1504 1505 1508 1512 1516 1518 1519 1519 1521 1521 1519 1522 1522 1521 1518 1516 1516
1441 1440 1438 1441 1441 1445 1448 1452 1452 1452 1454 1457 1460 1463 1466 1468 1471 1474 1479 1485 1488 1489 1493 1495 1498 1499 1499 1500 1503 1507 1511 1514 1514 1513 1515 1515 1513 1515 1517 1518 1516 1515 1512
1433 1432 1433 1436 1438 1443 1445 1447 1447 1448 1449 1451 1451 1455 1458 1461 1463 1466 1473 1478 1480 1481 1484 1488 1491 1492 1494 1495 1495 1502 1506 1507 1508 1509 1510 1511 1510 1511 1513 1513 1513 1511 1510
1431 1428 1430 1433 1437 1440 1442 1443 1444 1445 1446 1447 1448 1451 1452 1455 1457 1463 1466 1470 1472 1475 1476 1482 1482 1484 1489 1490 1491 1496 1500 1503 1503 1504 1503 1506 1506 1507 1508 1509 1509 1509 1508
1433 1430 1429 1432 1435 1437 1438 1440 1441 1443 1443 1444 1446 1447 1449 1451 1453 1457 1460 1463 1465 1467 1470 1474 1475 1476 1480 1486 1480 1489 1495 1497 1497 1498 1498 1500 1501 1503 1502 1504 1504 1505 1504
1434 1432 1429 1431 1431 1431 1435 1439 1440 1439 1439 1439 1441 1443 1445 1447 1448 1452 1453 1453 1458 1461 1464 1468 1469 1471 1472 1478 1479 1484 1489 1490 1491 1493 1493 1495 1497 1497 1499 1499 1500 1500 1501
1431 1435 1428 1431 1430 1434 1436 1436 1438 1437 1436 1438 1438 1440 1441 1444 1446 1447 1448 1451 1453 1455 1458 1462 1467 1466 1465 1472 1477 1480 1483 1485 1486 1487 1487 1490 1490 1492 1493 1493 1495 1496 1496
1439 1437 1436 1435 1434 1436 1436 1435 1434 1434 1433 1434 1436 1440 1441 1441 1442 1444 1446 1448 1450 1454 1457 1459 1455 1455 1462 1466 1472 1476 1479 1481 1480 1480 1482 1483 1484 1485 1487 1487 1488 1490 1490
1445 1444 1442 1440 1439 1439 1436 1435 1435 1434 1433 1434 1436 1438 1439 1439 1440 1442 1443 1446 1448 1450 1449 1450 1453 1456 1460 1464 1466 1470 1472 1473 1473 1477 1476 1475 1477 1479 1482 1481 1478 1482 1484
1446 1444 1442 1441 1440 1437 1436 1439 1438 1437 1434 1439 1440 1439 1441 1441 1440 1444 1444 1445 1447 1449 1449 1451 1454 1456 1457 1458 1462 1464 1464 1466 1468 1467 1467 1468 1473 1474 1475 1475 1473 1474 1477
1447 1445 1444 1444 1444 1443 1445 1444 1441 1441 1440 1444 1444 1443 1442 1444 1444 1443 1443 1445 1444 1446 1446 1448 1451 1453 1454 1456 1456 1456 1457 1457 1457 1457 1458 1460 1462 1463 1465 1468 1467 1467 1467
1450 1449 1448 1447 1446 1446 1443 1442 1441 1443 1442 1447 1444 1444 1444 1448 1445 1444 1445 1446 1445 1447 1448 1449 1450 1450 1452 1452 1452 1451 1450 1450 1450 1450 1449 1449 1451 1453 1455 1457 1455 1456 1455
1451 1450 1449 1448 1448 1446 1444 1444 1444 1445 1445 1445 1445 1445 1447 1447 1446 1447 1447 1446 1447 1448 1448 1450 1449 1449 1450 1447 1447 1445 1447 1446 1444 1443 1443 1443 1443 1445 1445 1446 1445 1446 1444
1452 1451 1451 1450 1450 1450 1449 1449 1450 1448 1448 1447 1448 1449 1449 1450 1447 1447 1446 1445 1445 1446 1447 1446 1446 1447 1448 1447 1446 1446 1444 1442 1440 1440 1438 1439 1440 1438 1438 1437 1437 1437 1435
1453 1452 1454 1454 1454 1453 1452 1452 1449 1449 1448 1448 1448 1446 1446 1446 1447 1447 1446 1447 1446 1445 1445 1445 1446 1446 1444 1444 1442 1442 1439 1437 1437 1435 1435 1436 1435 1434 1433 1432 1430 1429 1427
1456 1456 1456 1456 1455 1454 1452 1451 1450 1449 1449 1449 1448 1448 1447 1446 1445 1444 1444 1445 1446 1443 1445 1445 1442 1440 1439 1439 1438 1437 1435 1434 1433 1431 1431 1430 1429 1429 1427 1426 1425 1423 1420
1457 1456 1455 1456 1455 1454 1452 1451 1450 1450 1449 1449 1449 1448 1444 1444 1444 1443 1441 1442 1440 1440 1440 1438 1438 1434 1434 1435 1435 1434 1433 1432 1433 1432 1429 1427 1426 1423 1421 1419 1417 1416 1414
1457 1456 1454 1453 1452 1451 1450 1449 1448 1448 1447 1446 1445 1444 1445 1445 1443 1442 1441 1440 1439 1438 1437 1436 1435 1433 1430 1431 1432 1432 1432 1430 1429 1429 1428 1424 1422 1420 1417 1416 1414 1410 1406
1458 1457 1456 1455 1453 1452 1450 1448 1447 1446 1446 1444 1443 1442 1441 1441 1441 1440 1438 1437 1436 1435 1433 1432 1432 1431 1428 1427 1428 1430 1428 1426 1425 1424 1424 1421 1420 1419 1416 1412 1409 1407 1403
1458 1457 1456 1454 1453 1452 1450 1448 1448 1447 1445 1443 1442 1440 1439 1438 1436 1435 1434 1433 1433 1432 1431 1430 1428 1424 1423 1421 1422 1421 1421 1422 1421 1420 1417 1417 1416 1413 1410 1407 1405 1401 1398
1456 1455 1454 1453 1451 1451 1449 1448 1447 1445 1443 1440 1438 1437 1434 1433 1431 1429 1428 1427 1426 1426 1425 1424 1422 1420 1417 1415 1415 1415 1414 1414 1413 1412 1412 1410 1408 1407 1405 1402 1400 1397 1394
1455 1454 1452 1451 1450 1448 1446 1444 1443 1441 1439 1436 1434 1432 1430 1430 1427 1425 1422 1421 1419 1419 1418 1416 1415 1415 1414 1411 1409 1411 1410 1406 1407 1406 1405 1403 1403 1401 1398 1397 1395 1393 1390
1453 1451 1449 1448 1446 1445 1443 1441 1438 1435 1433 1432 1430 1428 1426 1425 1422 1420 1417 1415 1413 1412 1410 1409 1408 1407 1406 1406 1405 1403 1401 1400 1399 1397 1397 1396 1394 1394 1394 1393 1391 1389 1388
Wind_Speed
15 15 16 21 24 25 36 36 33 32 35 32 32 31 32 33 34 36 35 31 30 30 28 30 29 26 27 26 28 28 26 25 24 19 18 18 19 15 13 13 12 12 12
17 16 18 22 21 23 28 30 31 32 30 35 39 37 33 30 32 33 32 30 31 29 28 26 24 21 22 23 25 26 25 20 19 20 17 16 15 12 13 13 13 13 11
17 17 18 21 21 23 28 27 28 29 27 27 32 32 36 33 27 31 30 30 29 29 27 25 23 22 21 19 20 22 23 20 20 18 16 13 11 12 12 13 14 14 13
17 17 19 21 19 22 22 20 23 27 29 27 28 33 31 29 31 28 27 28 28 27 25 25 24 22 21 18 19 20 19 17 18 17 16 16 17 12 13 12 14 13 12
17 19 18 14 15 11 11 10 12 14 19 28 28 27 25 27 27 27 28 30 29 26 26 27 24 25 22 20 17 18 19 21 20 20 18 16 17 13 14 11 13 12 13
16 18 14 13 11 11 11 9 9 12 13 15 18 21 27 29 31 31 32 34 35 34 33 27 24 25 25 22 22 21 22 23 23 18 17 19 16 14 13 12 13 11 11
8 7 13 11 9 10 10 12 11 12 11 10 15 18 20 20 23 25 26 34 32 29 29 27 25 25 23 22 21 21 26 26 23 20 19 18 16 14 15 14 14 13 10
4 3 8 9 7 9 9 10 14 14 14 16 18 16 17 18 21 23 25 26 29 30 28 25 26 25 23 23 20 23 28 29 26 26 23 20 18 17 17 14 16 17 13
1 2 2 6 7 8 11 9 6 9 11 10 10 14 20 19 18 16 25 29 30 26 24 26 28 30 26 19 18 22 24 23 20 22 21 22 22 21 20 18 16 17 15
12 6 6 5 6 8 6 2 3 3 3 6 7 8 13 15 15 15 17 15 18 19 20 22 25 23 23 22 24 25 27 24 18 17 21 23 23 24 24 24 22 21 18
11 10 8 5 5 2 3 2 6 6 9 8 5 1 6 9 10 11 15 16 16 14 13 13 9 14 28 27 21 22 21 19 18 18 17 20 20 24 23 21 24 24 23
6 6 8 8 6 4 6 5 4 5 7 6 4 2 3 2 4 6 9 15 15 14 12 10 12 15 20 25 27 26 24 22 17 19 18 18 23 23 21 19 19 20 22
5 5 6 8 9 10 9 9 8 9 10 8 8 7 7 7 6 2 4 7 8 9 11 14 13 16 20 23 26 30 34 37 37 37 36 36 24 23 24 26 26 27 28
7 6 5 7 8 6 5 6 8 8 9 6 6 7 7 7 8 9 7 4 2 1 2 5 12 16 18 20 20 20 25 28 31 36 40 42 45 53 53 42 33 34 38
7 6 6 6 5 5 5 5 7 6 8 6 8 7 8 5 7 8 6 5 5 3 2 2 5 8 8 9 9 11 14 16 20 22 27 33 37 37 33 32 42 50 53
6 6 7 8 7 7 6 4 3 5 6 6 7 7 5 4 5 5 6 6 5 4 3 1 2 2 3 5 8 9 8 12 15 19 22 25 28 30 33 34 34 33 36
7 8 8 9 8 8 7 5 1 1 2 2 1 1 2 3 3 5 7 8 8 7 3 3 3 3 4 5 5 7 8 11 13 13 17 19 18 22 25 28 31 35 34
8 8 7 6 6 5 5 4 5 3 3 4 7 6 5 5 5 7 8 10 8 8 5 5 4 5 6 6 9 7 9 11 10 9 12 16 18 18 22 22 25 29 32
6 5 5 5 5 6 6 6 5 4 4 4 5 7 5 7 9 11 12 13 8 9 9 10 7 9 10 9 8 7 7 8 10 11 11 13 15 19 21 21 25 25 26
6 7 8 6 6 6 6 7 7 7 6 5 4 3 6 7 7 9 10 9 10 8 8 8 8 12 10 10 7 7 7 8 7 8 10 11 12 13 16 22 23 27 28
5 6 9 9 9 10 10 10 10 9 9 8 8 7 9 8 8 8 8 8 8 8 9 9 9 11 14 14 10 10 10 10 7 9 10 12 13 15 13 16 18 21 28
5 6 7 8 9 10 11 10 11 12 13 13 12 12 13 12 11 11 11 10 11 11 10 10 10 11 14 17 14 14 15 12 11 11 12 12 12 13 14 16 18 19 19
6 8 10 10 11 12 12 11 12 12 12 13 15 15 16 17 16 15 14 14 14 14 13 13 14 13 13 15 16 17 17 16 15 13 13 13 13 14 15 16 17 18 19
9 11 11 11 11 12 11 12 13 13 13 13 13 14 16 18 19 20 19 19 18 18 18 17 17 18 16 14 16 20 20 21 19 19 16 16 16 16 15 17 18 20 21
9 10 11 11 13 13 14 14 14 14 15 15 15 14 15 15 16 17 18 18 19 21 21 21 22 21 21 21 17 19 21 26 25 24 23 22 19 19 18 16 16 16 19
9 11 12 13 13 14 14 15 16 16 16 16 16 16 15 15 15 14 13 13 14 17 19 20 23 23 25 25 25 23 23 24 27 25 25 23 22 17 17 16 15 13 15
Wind_Direction
267 257 254 254 250 247 236 241 241 242 230 227 228 231 226 222 225 229 229 230 235 233 232 236 236 244 251 257 252 249 252 251 253 264 267 269 269 278 265 269 270 275 275
263 261 253 243 247 249 246 243 247 240 236 229 229 234 232 225 223 225 228 225 231 236 233 235 235 233 243 252 250 249 250 241 248 259 259 258 276 270 263 265 270 273 269
264 263 262 261 243 242 249 247 243 244 239 233 233 233 237 230 226 228 228 232 230 234 235 236 235 235 238 238 243 244 244 244 245 246 253 258 254 264 270 276 264 269 270
257 260 265 254 246 247 244 240 239 241 239 236 237 239 235 232 230 230 229 228 226 228 233 235 233 232 231 231 233 241 237 240 239 237 244 245 254 255 256 254 274 264 259
262 265 259 229 222 225 218 229 238 240 248 251 248 243 239 235 234 228 227 228 225 223 232 239 237 237 239 228 229 236 231 236 231 236 241 246 256 259 252 260 251 253 263
281 261 223 190 205 209 217 256 253 254 262 256 253 246 245 247 244 241 235 229 230 239 239 234 233 246 248 244 234 223 233 221 237 231 242 246 246 246 252 251 259 251 263
331 206 188 197 211 248 256 276 253 247 257 249 240 238 240 242 242 237 237 234 230 230 229 227 231 242 241 238 229 237 233 238 236 243 236 241 248 245 239 244 244 249 257
9 67 182 190 217 238 285 285 240 245 251 256 250 251 240 234 236 238 235 233 227 226 223 225 230 231 228 227 222 235 241 243 241 241 247 249 247 244 248 253 256 256 258
21 355 95 186 186 211 280 257 231 248 248 255 242 240 238 239 241 250 237 235 228 232 234 234 236 225 211 225 232 234 239 242 246 256 257 260 258 258 260 259 254 261 254
49 56 96 126 167 220 213 219 176 172 187 210 235 243 238 238 237 223 217 218 227 229 230 233 232 230 219 225 236 240 245 246 245 247 255 252 256 258 257 259 257 252 253
40 41 56 72 96 172 174 139 116 108 85 89 100 204 237 234 229 213 214 230 220 209 212 225 248 245 228 240 252 230 239 246 253 264 264 266 262 259 262 259 256 252 251
9 42 63 62 70 57 69 77 89 97 94 59 45 344 358 13 230 232 227 208 208 234 245 258 249 243 236 238 241 240 244 247 250 258 258 268 272 263 262 252 252 263 260
19 43 61 58 55 56 60 63 56 62 65 63 82 78 67 69 80 100 186 203 210 224 251 256 252 247 246 245 249 254 256 256 256 259 261 253 260 273 271 272 267 267 269
34 48 64 62 54 78 80 72 71 62 72 70 73 75 69 67 68 68 73 71 74 332 272 255 255 247 253 261 260 262 257 257 258 259 261 261 268 271 272 266 266 263 267
41 41 42 36 30 22 43 92 77 81 98 85 77 75 81 78 76 71 74 68 56 26 352 295 272 256 245 250 256 266 267 265 268 268 265 264 265 268 266 266 266 268 268
41 47 58 56 45 35 40 36 96 97 82 79 76 86 79 68 57 51 39 33 24 7 50 314 318 320 315 304 284 278 286 280 272 272 273 270 266 265 266 267 268 265 266
57 71 61 60 53 51 53 66 106 317 337 332 321 315 291 313 334 340 348 351 353 350 350 316 303 289 293 312 309 295 293 289 281 287 284 277 279 277 270 267 262 265 267
71 66 57 45 34 35 38 39 43 39 4 325 296 291 287 272 276 292 303 314 334 334 324 302 274 268 259 267 290 296 297 303 301 294 294 294 284 278 279 281 271 264 269
60 44 37 32 25 39 41 36 27 11 350 335 310 320 300 289 292 296 296 292 289 286 275 275 275 261 266 284 299 298 295 305 308 313 308 290 281 283 283 279 280 284 274
24 24 33 23 14 6 359 356 347 347 334 322 325 315 321 345 334 317 314 307 293 298 291 281 271 273 286 290 293 285 295 298 299 307 306 308 311 313 302 284 283 283 281
8 352 4 1 348 344 341 332 324 317 313 312 306 285 288 296 303 305 298 291 285 285 290 290 288 283 290 286 273 278 283 277 297 302 309 309 310 313 306 306 312 299 283
359 352 347 344 338 334 330 337 328 309 295 290 291 289 285 296 286 287 292 292 292 287 286 282 281 278 275 278 264 263 266 275 281 292 301 310 311 304 311 314 308 308 302
320 327 325 322 319 318 322 315 311 313 310 295 282 280 280 279 277 278 279 281 283 281 277 277 275 284 272 279 262 257 256 260 263 270 284 289 297 307 310 315 315 316 322
312 314 317 315 314 314 311 308 310 309 309 305 295 289 283 280 279 275 275 278 279 279 277 277 280 282 281 281 271 262 260 266 267 276 280 284 292 295 297 305 306 308 308
316 317 321 316 312 310 309 308 305 305 307 309 307 305 299 295 289 283 280 281 279 278 277 278 280 281 280 278 281 266 266 263 266 273 281 283 284 288 293 294 300 307 316
321 321 323 317 312 309 308 308 308 307 307 307 302 302 300 298 295 291 295 292 286 282 280 278 278 277 274 272 274 272 270 281 272 270 275 278 278 272 280 283 296 300 305